Location: Newark
(60.0000°N, 100.0000°E)
Time: 19:08:22
(UTC+00:00)

N. Korean satellite - Pass Details

Date: 26 November 2019
Orbit: 456 x 506 km, 97.2° (Epoch: 06 December)

Event Time Altitude Azimuth Distance (km) Brightness Sun altitude
Rises 23:55:02 0° 14° (NNE) 2,618 10.2 -12.2°
Reaches altitude 10° 23:57:09 10° 11° (N) 1,724 9.2 -11.9°
Maximum altitude 00:00:50 64° 290° (WNW) 558 6.6 -11.5°
Drops below altitude 10° 00:04:26 10° 209° (SSW) 1,688 9.2 -11.1°
Sets 00:06:29 0° 206° (SSW) 2,558 10.2 -10.9°
